• In Uzbekistan
  • List of Countries
  • For 7 days
  • Water Temperature
  • Satellite Maps
  • Weather Map
  • Weather Widgets
  • user-avatar
    Login

    Hourly Weather Ashtarak

    Today, 27 June, Tuesday

    Time Temperature Precipitation Wind Pressure Humidity
    00:00 +18°C° 0 mm 2 mps 660 mmHg 82%
    01:00 +17°C° 0 mm 2 mps 660 mmHg 83%
    02:00 +18°C° 0 mm 1 mps 660 mmHg 83%
    03:00 +18°C° 0 mm 1 mps 659 mmHg 85%
    04:00 +19°C° 0 mm 1 mps 659 mmHg 82%
    05:00 +20°C° 0 mm 1 mps 659 mmHg 78%
    06:00 +21°C° 0 mm 1 mps 660 mmHg 75%
    07:00 +23°C° 0 mm 1 mps 660 mmHg 64%
    08:00 +26°C° 0 mm 1 mps 661 mmHg 52%
    09:00 +28°C° 0 mm 1 mps 661 mmHg 41%
    10:00 +30°C° 0 mm 2 mps 661 mmHg 37%
    11:00 +32°C° 0 mm 2 mps 661 mmHg 33%
    12:00 +34°C° 0 mm 2 mps 661 mmHg 29%
    13:00 +35°C° 0 mm 2 mps 660 mmHg 28%
    14:00 +35°C° 0 mm 2 mps 660 mmHg 26%
    15:00 +35°C° 0 mm 2 mps 660 mmHg 25%
    16:00 +34°C° 0.1 mm 2 mps 659 mmHg 31%
    17:00 +32°C° 0.1 mm 2 mps 659 mmHg 37%
    18:00 +31°C° 0.1 mm 1 mps 659 mmHg 43%
    19:00 +28°C° 0.2 mm 2 mps 658 mmHg 50%
    20:00 +26°C° 0.2 mm 2 mps 658 mmHg 57%
    21:00 +23°C° 0.2 mm 2 mps 657 mmHg 64%
    22:00 +21°C° 0 mm 2 mps 657 mmHg 68%
    23:00 +21°C° 0 mm 2 mps 657 mmHg 71%

    Tomorrow, 28 June, Wednesday

    Time Temperature Precipitation Wind Pressure Humidity
    00:00 +20°C° 0 mm 2 mps 657 mmHg 74%
    01:00 +20°C° 0 mm 2 mps 657 mmHg 75%
    02:00 +20°C° 0 mm 2 mps 657 mmHg 76%
    03:00 +19°C° 0 mm 2 mps 657 mmHg 78%
    04:00 +21°C° 0 mm 1 mps 657 mmHg 75%
    05:00 +22°C° 0 mm 1 mps 658 mmHg 73%
    06:00 +22°C° 0 mm 1 mps 658 mmHg 71%
    07:00 +25°C° 0 mm 1 mps 658 mmHg 60%
    08:00 +28°C° 0 mm 1 mps 659 mmHg 49%
    09:00 +31°C° 0 mm 1 mps 659 mmHg 37%
    10:00 +32°C° 0 mm 1 mps 659 mmHg 33%
    11:00 +34°C° 0 mm 1 mps 659 mmHg 28%
    12:00 +35°C° 0 mm 1 mps 659 mmHg 23%
    13:00 +35°C° 0.1 mm 1 mps 659 mmHg 23%
    14:00 +35°C° 0.1 mm 1 mps 658 mmHg 23%
    15:00 +36°C° 0.1 mm 1 mps 658 mmHg 23%
    16:00 +35°C° 0.3 mm 2 mps 658 mmHg 29%
    17:00 +34°C° 0.3 mm 2 mps 657 mmHg 36%
    18:00 +31°C° 0.3 mm 2 mps 657 mmHg 42%
    19:00 +29°C° 0.2 mm 2 mps 657 mmHg 50%
    20:00 +26°C° 0.2 mm 2 mps 656 mmHg 58%
    21:00 +24°C° 0.2 mm 3 mps 656 mmHg 66%
    22:00 +23°C° 0.1 mm 2 mps 656 mmHg 68%
    23:00 +21°C° 0.1 mm 2 mps 656 mmHg 70%

    Day after tomorrow, 29 June, Thursday

    Time Temperature Precipitation Wind Pressure Humidity
    00:00 +20°C° 0.1 mm 2 mps 656 mmHg 72%
    01:00 +20°C° 0.1 mm 2 mps 656 mmHg 73%
    02:00 +19°C° 0.1 mm 2 mps 656 mmHg 75%
    03:00 +19°C° 0.1 mm 2 mps 656 mmHg 77%
    04:00 +19°C° 0.1 mm 2 mps 656 mmHg 75%
    05:00 +20°C° 0.1 mm 2 mps 656 mmHg 74%
    06:00 +22°C° 0.1 mm 1 mps 657 mmHg 72%
    07:00 +24°C° 0.2 mm 1 mps 657 mmHg 64%
    08:00 +26°C° 0.2 mm 1 mps 658 mmHg 55%
    09:00 +29°C° 0.2 mm 1 mps 658 mmHg 46%
    10:00 +30°C° 0.3 mm 1 mps 658 mmHg 42%
    11:00 +32°C° 0.3 mm 1 mps 658 mmHg 37%
    12:00 +34°C° 0.3 mm 1 mps 658 mmHg 33%
    13:00 +33°C° 0.2 mm 1 mps 658 mmHg 33%
    14:00 +33°C° 0.2 mm 1 mps 657 mmHg 32%
    15:00 +33°C° 0.2 mm 1 mps 657 mmHg 32%
    16:00 +32°C° 0.5 mm 2 mps 657 mmHg 37%
    17:00 +31°C° 0.5 mm 2 mps 657 mmHg 42%
    18:00 +30°C° 0.5 mm 3 mps 656 mmHg 47%
    19:00 +27°C° 0.4 mm 3 mps 656 mmHg 54%
    20:00 +25°C° 0.4 mm 3 mps 656 mmHg 61%
    21:00 +21°C° 0.4 mm 2 mps 656 mmHg 69%
    22:00 +21°C° 0.2 mm 2 mps 656 mmHg 71%
    23:00 +20°C° 0.2 mm 2 mps 656 mmHg 74%

    30 June, Friday

    Time Temperature Precipitation Wind Pressure Humidity
    00:00 +19°C° 0.2 mm 2 mps 656 mmHg 76%
    01:00 +19°C° 0.2 mm 2 mps 656 mmHg 77%
    02:00 +18°C° 0.2 mm 2 mps 656 mmHg 78%
    03:00 +18°C° 0.2 mm 2 mps 656 mmHg 79%
    04:00 +18°C° 0.3 mm 2 mps 656 mmHg 76%
    05:00 +19°C° 0.3 mm 2 mps 657 mmHg 74%
    06:00 +19°C° 0.3 mm 2 mps 657 mmHg 71%
    07:00 +21°C° 0.1 mm 2 mps 657 mmHg 62%
    08:00 +25°C° 0.1 mm 1 mps 658 mmHg 53%
    09:00 +27°C° 0.1 mm 1 mps 658 mmHg 44%
    10:00 +28°C° 0.1 mm 1 mps 658 mmHg 40%
    11:00 +30°C° 0.1 mm 1 mps 658 mmHg 37%
    12:00 +31°C° 0.1 mm 1 mps 658 mmHg 33%
    13:00 +31°C° 0.5 mm 2 mps 658 mmHg 36%
    14:00 +31°C° 0.5 mm 2 mps 657 mmHg 38%
    15:00 +31°C° 0.5 mm 2 mps 657 mmHg 40%
    16:00 +30°C° 0.7 mm 2 mps 657 mmHg 43%
    17:00 +29°C° 0.7 mm 3 mps 657 mmHg 46%
    18:00 +28°C° 0.7 mm 3 mps 657 mmHg 48%
    19:00 +25°C° 0.2 mm 3 mps 657 mmHg 54%
    20:00 +22°C° 0.2 mm 3 mps 657 mmHg 60%
    21:00 +20°C° 0.2 mm 2 mps 657 mmHg 65%
    22:00 +19°C° 0.1 mm 2 mps 657 mmHg 66%
    23:00 +19°C° 0.1 mm 2 mps 657 mmHg 67%

    1 July, Saturday

    Time Temperature Precipitation Wind Pressure Humidity
    00:00 +18°C° 0.1 mm 2 mps 657 mmHg 67%
    01:00 +17°C° 0 mm 2 mps 657 mmHg 67%
    02:00 +17°C° 0 mm 2 mps 657 mmHg 67%
    03:00 +16°C° 0 mm 2 mps 657 mmHg 67%
    04:00 +17°C° 0 mm 2 mps 658 mmHg 65%
    05:00 +18°C° 0 mm 2 mps 658 mmHg 62%
    06:00 +18°C° 0 mm 2 mps 659 mmHg 59%
    07:00 +21°C° 0 mm 2 mps 659 mmHg 51%
    08:00 +24°C° 0 mm 1 mps 660 mmHg 42%
    09:00 +27°C° 0 mm 1 mps 660 mmHg 34%
    10:00 +28°C° 0 mm 1 mps 660 mmHg 31%
    11:00 +30°C° 0 mm 1 mps 660 mmHg 28%
    12:00 +31°C° 0 mm 2 mps 660 mmHg 25%
    13:00 +32°C° 0 mm 2 mps 660 mmHg 25%
    14:00 +32°C° 0 mm 2 mps 660 mmHg 26%
    15:00 +32°C° 0 mm 2 mps 659 mmHg 26%
    16:00 +31°C° 0.1 mm 2 mps 659 mmHg 29%
    17:00 +30°C° 0.1 mm 3 mps 659 mmHg 33%
    18:00 +29°C° 0.1 mm 3 mps 659 mmHg 36%
    19:00 +26°C° 0.1 mm 3 mps 659 mmHg 43%
    20:00 +24°C° 0.1 mm 2 mps 659 mmHg 49%
    21:00 +20°C° 0.1 mm 2 mps 659 mmHg 56%
    22:00 +19°C° 0 mm 2 mps 659 mmHg 57%
    23:00 +18°C° 0 mm 2 mps 659 mmHg 58%

    2 July, Sunday

    Time Temperature Precipitation Wind Pressure Humidity
    00:00 +18°C° 0 mm 2 mps 659 mmHg 59%
    01:00 +17°C° 0 mm 2 mps 658 mmHg 59%
    02:00 +17°C° 0 mm 2 mps 658 mmHg 59%
    03:00 +16°C° 0 mm 2 mps 658 mmHg 59%
    04:00 +17°C° 0 mm 2 mps 658 mmHg 57%
    05:00 +19°C° 0 mm 1 mps 658 mmHg 54%
    06:00 +20°C° 0 mm 1 mps 659 mmHg 52%
    07:00 +22°C° 0 mm 1 mps 659 mmHg 44%
    08:00 +25°C° 0 mm 1 mps 660 mmHg 37%
    09:00 +28°C° 0 mm 1 mps 660 mmHg 29%
    10:00 +29°C° 0 mm 1 mps 660 mmHg 27%
    11:00 +31°C° 0 mm 2 mps 660 mmHg 24%
    12:00 +32°C° 0 mm 2 mps 660 mmHg 22%
    13:00 +32°C° 0 mm 2 mps 659 mmHg 22%
    14:00 +34°C° 0 mm 2 mps 659 mmHg 22%
    15:00 +34°C° 0 mm 2 mps 659 mmHg 22%
    16:00 +32°C° 0 mm 2 mps 658 mmHg 26%
    17:00 +31°C° 0 mm 2 mps 658 mmHg 29%
    18:00 +30°C° 0 mm 2 mps 658 mmHg 33%
    19:00 +27°C° 0.1 mm 2 mps 658 mmHg 43%
    20:00 +24°C° 0.1 mm 2 mps 657 mmHg 52%
    21:00 +20°C° 0.1 mm 2 mps 657 mmHg 62%
    22:00 +20°C° 0.1 mm 2 mps 657 mmHg 63%
    23:00 +19°C° 0.1 mm 2 mps 657 mmHg 65%
    Show more